Location: Unspecified
(43.3830°N, 0.0000°E)
Time: 16:18:53
(UTC+00:00)

Vanguard 2 - Pass Details

Date: 18 June 2019
Orbit: 553 x 2938 km, 32.9° (Epoch: 22 July)

Event Time Altitude Azimuth Distance (km) Brightness Sun altitude
Rises 13:01:40 0° 266° (W) 4,560 11.7 66.4°
Reaches altitude 10° 13:04:26 10° 260° (W) 3,863 11.5 66.1°
Maximum altitude 13:14:29 45° 192° (SSW) 2,823 11.8 65.0°
Drops below altitude 10° 13:29:21 10° 128° (SE) 5,597 12.0 63.0°
Sets 13:34:20 0° 123° (ESE) 6,743 12.2 62.3°
